Location: Zlin
(49.2330°N, 17.6670°E)
Time: 23:59:28
(UTC+02:00)

ISS - Visible Passes

Search period start: 04 August 2015 00:00
Search period end: 14 August 2015 00:00
Orbit: 401 x 403 km, 51.6° (Epoch: 04 August)

Date Brightness Start Highest point End Pass type
(mag) Time Alt. Az. Time Alt. Az. Time Alt. Az.
04 Aug -0.4 01:03:52 10° WNW 01:04:01 11° WNW 01:04:01 11° WNW visible
04 Aug -3.1 20:57:48 10° SW 21:00:58 49° SSE 21:04:09 10° ENE visible
04 Aug -2.8 22:34:10 10° W 22:37:24 59° N 22:40:10 13° ENE visible
05 Aug -1.8 00:10:49 10° WNW 00:12:45 32° WNW 00:12:45 32° WNW visible
05 Aug -3.1 21:41:03 10° W 21:44:18 73° NNW 21:47:34 10° ENE visible
05 Aug -2.7 23:17:44 10° WNW 23:20:57 55° N 23:21:27 48° NE visible
06 Aug -2.6 22:24:36 10° W 22:27:48 53° N 22:30:07 17° ENE visible
07 Aug -1.5 00:01:09 10° WNW 00:02:42 26° WNW 00:02:42 26° WNW visible
07 Aug -2.7 21:31:26 10° W 21:34:39 57° N 21:37:53 10° ENE visible
07 Aug -3.1 23:08:04 10° WNW 23:11:19 67° NNE 23:11:22 67° NNE visible
08 Aug -2.8 22:14:57 10° WNW 22:18:10 56° N 22:20:01 22° E visible
08 Aug -1.1 23:51:25 10° WNW 23:52:36 20° W 23:52:36 20° W visible
09 Aug -2.6 21:21:47 10° WNW 21:25:00 53° N 21:28:12 10° E visible
09 Aug -3.2 22:58:18 10° WNW 23:01:15 70° W 23:01:15 70° W visible
10 Aug -3.2 22:05:11 10° WNW 22:08:27 71° NNE 22:09:54 30° E visible
10 Aug -0.7 23:41:46 10° W 23:42:29 15° W 23:42:29 15° W visible
11 Aug -2.8 21:12:03 10° WNW 21:15:17 58° N 21:18:31 10° E visible
11 Aug -2.6 22:48:32 10° WNW 22:51:09 44° WSW 22:51:09 44° WSW visible
12 Aug -3.4 21:55:22 10° WNW 21:58:38 79° SSW 21:59:50 36° ESE visible
12 Aug -0.4 23:32:21 10° W 23:32:24 10° W 23:32:24 10° W visible
13 Aug -3.2 21:02:13 10° WNW 21:05:29 76° NNE 21:08:31 12° ESE visible
13 Aug -1.8 22:38:50 10° W 22:41:06 27° WSW 22:41:06 27° WSW visible
